[[{"header":{"parameterUnit":"m.s-1","parameterCategory":1,"la1":30.2991,"la2":30.254,"lo1":-89.0895,"lo2":-89.0444,"dy":0.0017,"dx":0.0017,"nx":28,"ny":28,"refTime":"2023-10-31T09:00:00:Z","depth":0,"parameterNumber":2,"parameterNumberName":"U-component_of_WINDS"},"data":[0,0,0,0,0,0,0,0,0,0,0,0,0,0,0,0,0,0,0,0,0,0,0,0,0,0,0,0,0,0,0,0,0,0,0,0,0,0,0,0,0,0,0,0,0,0,0,0,0,0,0,0,0,0,0,0,0,0,-2.0619,-2.062,0,-2.0717,-2.0719,-2.072,-2.066,-2.0657,-2.0654,-2.0651,-2.0753,-2.0758,-2.0763,0,0,0,0,0,0,0,0,0,0,0,0,0,-2.0379,-2.0384,-2.0619,-2.062,-2.0622,-2.0717,-2.0719,-2.072,-2.066,-2.0657,-2.0653,-2.065,-2.0751,-2.0757,-2.0764,0,0,0,0,0,0,0,0,0,0,0,0,0,-2.0481,-2.0385,-2.0619,-2.0603,-2.0603,-2.0717,-2.0719,-2.072,-2.0661,-2.0657,-2.0652,-2.0648,-2.0749,-2.0757,-2.0765,-2.09,0,0,-2.0789,-2.0793,0,0,0,0,0,0,0,0,-2.0475,-2.049,-2.0604,-2.0605,-2.0604,-2.0672,-2.0671,-2.0781,-2.0662,-2.0639,-2.0651,-2.0646,-2.0729,-2.0739,-2.0767,-2.0905,-2.0909,-2.079,-2.0795,-2.0798,-2.0801,0,0,0,0,0,0,0,-2.0468,-2.0485,-2.0658,-2.0606,-2.0606,-2.0591,-2.0601,-2.0692,-2.0707,-2.0641,-2.0636,-2.0649,-2.0729,-2.0759,-2.0769,-2.0911,-2.079,-2.0797,-2.0802,-2.0805,-2.1164,-2.1169,0,0,0,0,0,0,-2.0462,-2.048,-2.0655,-2.0661,-2.0528,-2.0599,-2.061,-2.0655,-2.0706,-2.071,-2.0652,-2.0646,-2.0747,-2.0759,-2.0772,-2.0934,-2.0798,-2.0806,-2.0811,-2.116,-2.1165,-2.117,0,0,0,0,0,0,-2.0458,-2.0479,-2.0651,-2.0569,-2.059,-2.0608,-2.0658,-2.0659,-2.0689,-2.0715,-2.0717,-2.0681,-2.0745,-2.0761,-2.0869,-2.0937,-2.081,-2.0817,-2.1154,-2.1161,-2.1168,-2.126,0,0,0,0,0,0,-2.0451,-2.0477,-2.0529,-2.0571,-2.0595,-2.0747,-2.0662,-2.0664,-2.0703,-2.0695,-2.0742,-2.0746,-2.0742,-2.0857,-2.0877,-2.0946,-2.0823,-2.1148,-2.1157,-2.1166,-2.1251,-2.1269,-2.1285,0,0,0,0,0,-2.0443,-2.0552,-2.0532,-2.0554,-2.066,-2.0751,-2.0764,-2.0758,-2.0709,-2.0761,-2.0777,-2.0744,-2.0926,-2.0868,-2.089,-2.0963,-2.1144,-2.1155,-2.1165,-2.1243,-2.1266,-2.1285,0,0,0,0,0,0,-2.0519,-2.0557,-2.0536,-2.0662,-2.0703,-2.074,-2.0807,-2.0782,-2.0839,-2.0829,-2.0818,-2.083,-2.0942,-2.0963,-2.0898,-2.1096,-2.1027,-2.1042,-2.1079,-2.1101,-2.1117,-2.1111,-2.083,0,0,0,0,0,-2.055,-2.062,-2.065,-2.0758,-2.078,-2.079,-2.0829,-2.082,-2.0863,-2.088,-2.0904,-2.0947,-2.1013,-2.1058,-2.112,-2.1252,-2.1262,-2.1313,-2.133,-2.1344,-2.1358,-2.1429,-2.1452,-2.1205,-2.1205,-2.1205,0,0,-2.0616,-2.0645,-2.0691,-2.0774,-2.0805,-2.0878,-2.0805,-2.0885,-2.094,-2.0892,-2.0996,-2.1015,-2.1062,-2.1182,-2.1237,-2.1203,-2.1428,-2.1357,-2.1368,-2.1375,-2.1442,-2.1466,-2.1487,-2.1212,-2.1211,-2.121,0,0,-2.0774,-2.0803,-2.0896,-2.0928,-2.0976,-2.0981,-2.1003,-2.1044,-2.1054,-2.1158,-2.1124,-2.1187,-2.1302,-2.1337,-2.137,-2.1537,-2.1509,-2.1558,-2.1648,-2.1717,-2.1737,-2.1754,-2.1815,-2.1837,-2.1571,-2.1572,-2.1572,0,-2.085,-2.0959,-2.0947,-2.103,-2.1068,-2.1027,-2.1121,-2.1153,-2.1219,-2.1246,-2.1206,-2.1349,-2.1377,-2.1506,-2.1546,-2.1574,-2.1599,-2.1554,-2.1735,-2.1752,-2.1768,-2.1826,-2.1849,-2.1577,-2.1577,-2.1576,-2.1575,0,-2.105,-2.1126,-2.1195,-2.126,-2.1304,-2.1393,-2.1395,-2.1441,-2.1427,-2.1437,-2.1542,-2.1574,-2.1643,-2.1672,-2.1659,-2.1798,-2.1776,-2.1736,-2.1667,-2.1797,-2.1852,-2.1874,-2.1585,-2.1583,-2.1582,-2.158,0,0,-2.1262,-2.1317,-2.1343,-2.1371,-2.1419,-2.1477,-2.1563,-2.1629,-2.167,-2.1715,-2.1787,-2.1884,-2.1847,-2.1884,-2.1874,-2.1935,-2.2067,-2.1888,-2.1889,-2.1921,-2.2221,-2.2253,-2.2279,-2.2047,-2.2051,-2.2054,-2.2218,0,-2.1424,-2.1574,-2.1565,-2.1706,-2.1776,-2.1736,-2.1811,-2.1848,-2.1858,-2.1918,-2.1929,-2.1998,-2.1944,-2.1966,-2.2024,-2.2038,-2.2127,-2.2026,-2.2114,-2.2118,-2.2106,-2.2307,-2.2341,-2.2494,-2.2239,-2.2242,-2.2245,0,-2.1634,-2.1686,-2.1834,-2.1871,-2.1899,-2.1967,-2.2026,-2.2084,-2.2124,-2.2127,-2.2168,-2.2148,-2.2234,-2.216,-2.2278,-2.221,-2.2245,-2.2257,-2.2263,-2.2273,-2.2191,-2.2324,-2.2542,-2.2566,-2.2278,-2.2275,-2.2273,0,-2.1776,-2.1882,-2.1985,-2.201,-2.2055,-2.2103,-2.2124,-2.216,-2.22,-2.2251,-2.2277,-2.2337,-2.2371,-2.2418,-2.2414,-2.2361,-2.2535,-2.2461,-2.254,-2.254,-2.2581,-2.2579,-2.281,-2.26,-2.26,-2.2599,-2.2599,0,-2.1959,-2.2051,-2.2049,-2.2112,-2.2214,-2.2201,-2.2303,-2.2318,-2.235,-2.2416,-2.2384,-2.2446,-2.2436,-2.2498,-2.2496,-2.2594,-2.2609,-2.2614,-2.2613,-2.2619,-2.2618,-2.2643,-2.2633,-2.2605,-2.2604,-2.2603,-2.2602,0,-2.2136,-2.2138,-2.2247,-2.2279,-2.2289,-2.2363,-2.2391,-2.245,-2.2456,-2.2539,-2.2558,-2.2568,-2.2638,-2.2639,-2.272,-2.2718,-2.2839,-2.2824,-2.2825,-2.2823,-2.2903,-2.2896,-2.316,-2.3195,-2.296,-2.2963,-2.2965,0,-2.2254,-2.2324,-2.2363,-2.2404,-2.2428,-2.2495,-2.2535,-2.2524,-2.2567,-2.2618,-2.2671,-2.2738,-2.2792,-2.2907,-2.2921,-2.2983,-2.2971,-2.3059,-2.298,-2.2983,-2.2974,-2.297,-2.2978,-2.3075,-2.3078,-2.308,-2.3082,0,-2.2463,-2.246,-2.2519,-2.2578,-2.2627,-2.2673,-2.2715,-2.275,-2.2744,-2.2794,-2.2866,-2.2907,-2.2989,-2.3057,-2.3115,-2.3136,-2.3109,-2.3106,-2.3128,-2.3135,-2.3134,-2.3137,-2.287,-2.3101,-2.3099,-2.3097,-2.3096,-2.3095,-2.2616,-2.2676,-2.2713,-2.2779,-2.2809,-2.2849,-2.2906,-2.2919,-2.2978,-2.3044,-2.3033,-2.3114,-2.3151,-2.3227,-2.3252,-2.3314,-2.3284,-2.3315,-2.3323,-2.3332,-2.3341,-2.3121,-2.3325,-2.3324,-2.3324,-2.3323,-2.3323,0,-2.2825,-2.2846,-2.2907,-2.2967,-2.3019,-2.2986,-2.303,-2.3076,-2.3147,-2.3184,-2.3237,-2.3318,-2.3383,-2.3401,-2.3463,-2.3509,-2.3498,-2.3526,-2.3524,-2.3529,-2.3365,-2.334,-2.3534,-2.3534,-2.3534,-2.3534,-2.3534,-2.3534,-2.294,-2.304,-2.3041,-2.3155,-2.3175,-2.3254,-2.3282,-2.3318,-2.3347,-2.344,-2.3493,-2.3504,-2.3533,-2.3597,-2.3654,-2.3658,-2.3683,-2.3717,-2.3715,-2.3562,-2.3541,-2.3521,-2.3498,-2.3722,-2.3722,-2.3875,-2.3876,-2.3877]},{"header":{"parameterUnit":"m.s-1","parameterCategory":1,"la1":30.2991,"la2":30.254,"lo1":-89.0895,"lo2":-89.0444,"dy":0.0017,"dx":0.0017,"nx":28,"ny":28,"refTime":"2023-10-31T09:00:00:Z","depth":0,"parameterNumber":3,"parameterNumberName":"V-component_of_WINDS"},"data":[0,0,0,0,0,0,0,0,0,0,0,0,0,0,0,0,0,0,0,0,0,0,0,0,0,0,0,0,0,0,0,0,0,0,0,0,0,0,0,0,0,0,0,0,0,0,0,0,0,0,0,0,0,0,0,0,0,0,-8.9388,-8.939,0,-8.9563,-8.9565,-8.9567,-8.9452,-8.9447,-8.9442,-8.9437,-8.9608,-8.9618,-8.9627,0,0,0,0,0,0,0,0,0,0,0,0,0,-8.8943,-8.8952,-8.9387,-8.939,-8.9392,-8.9563,-8.9565,-8.9568,-8.9453,-8.9447,-8.944,-8.9434,-8.9605,-8.9616,-8.9628,0,0,0,0,0,0,0,0,0,0,0,0,0,-8.9129,-8.8955,-8.9387,-8.9355,-8.9354,-8.9562,-8.9565,-8.9568,-8.9454,-8.9446,-8.9439,-8.9431,-8.9602,-8.9615,-8.9629,-8.9876,0,0,-8.9673,-8.9679,0,0,0,0,0,0,0,0,-8.9119,-8.9146,-8.9358,-8.9358,-8.9357,-8.9478,-8.9472,-8.9671,-8.9456,-8.9416,-8.9436,-8.9427,-8.9571,-8.9587,-8.9637,-8.9884,-8.9891,-8.9674,-8.9683,-8.9689,-8.9693,0,0,0,0,0,0,0,-8.9106,-8.9137,-8.9457,-8.9361,-8.9361,-8.9329,-8.9347,-8.9509,-8.9535,-8.9419,-8.9411,-8.9434,-8.9569,-8.9624,-8.964,-8.9894,-8.9674,-8.9686,-8.9695,-8.9701,-9.0348,-9.0357,0,0,0,0,0,0,-8.9097,-8.9128,-8.9451,-8.9462,-8.9216,-8.9344,-8.9364,-8.9447,-8.9533,-8.9539,-8.9441,-8.9428,-8.9603,-8.9624,-8.9646,-8.9939,-8.9689,-8.9702,-8.971,-9.034,-9.035,-9.036,0,0,0,0,0,0,-8.9088,-8.9127,-8.9444,-8.9293,-8.9331,-8.936,-8.9454,-8.9455,-8.9509,-8.955,-8.9553,-8.9492,-8.9598,-8.9626,-8.982,-8.9943,-8.9709,-8.9722,-9.033,-9.0343,-9.0355,-9.0528,0,0,0,0,0,0,-8.9076,-8.9125,-8.9221,-8.9296,-8.9339,-8.9618,-8.9462,-8.9464,-8.9535,-8.952,-8.9599,-8.9605,-8.9594,-8.9799,-8.9834,-8.9959,-8.9733,-9.0319,-9.0336,-9.0351,-9.0511,-9.0545,-9.0574,0,0,0,0,0,-8.906,-8.9261,-8.9227,-8.9266,-8.9461,-8.9626,-8.965,-8.9636,-8.9546,-8.9641,-8.9667,-8.9602,-8.9924,-8.982,-8.9858,-8.9989,-9.0311,-9.0331,-9.035,-9.0497,-9.0539,-9.0574,0,0,0,0,0,0,-8.9198,-8.9271,-8.9233,-8.9465,-8.954,-8.9606,-8.9726,-8.968,-8.9781,-8.9763,-8.9738,-8.9757,-8.9959,-8.9993,-8.9876,-9.0231,-9.0103,-9.0131,-9.0202,-9.0241,-9.0272,-9.026,-8.9744,0,0,0,0,0,-8.9255,-8.9386,-8.9441,-8.964,-8.968,-8.9697,-8.9768,-8.9751,-8.9827,-8.9858,-8.9897,-8.9971,-9.0089,-9.0167,-9.0277,-9.0515,-9.0529,-9.0624,-9.0655,-9.0681,-9.0705,-9.0832,-9.0874,-9.0424,-9.0424,-9.0423,0,0,-8.9375,-8.9431,-8.9515,-8.9669,-8.9726,-8.9859,-8.9725,-8.9871,-8.9969,-8.9879,-9.0065,-9.0097,-9.0177,-9.0394,-9.0491,-9.0428,-9.0833,-9.0706,-9.0726,-9.0737,-9.0856,-9.0899,-9.0937,-9.0437,-9.0435,-9.0432,0,0,-8.9661,-8.9718,-8.9889,-8.9949,-9.0037,-9.0046,-9.0087,-9.0161,-9.0179,-9.0366,-9.0301,-9.0414,-9.0618,-9.0678,-9.0735,-9.1042,-9.0985,-9.1078,-9.1243,-9.1366,-9.1402,-9.1433,-9.1541,-9.1581,-9.1102,-9.1103,-9.1103,0,-8.9798,-8.9999,-8.9982,-9.0134,-9.0203,-9.013,-9.0301,-9.0359,-9.0478,-9.0525,-9.0453,-9.0707,-9.0756,-9.0985,-9.106,-9.1109,-9.1153,-9.1069,-9.1398,-9.143,-9.1459,-9.1562,-9.1603,-9.1113,-9.1112,-9.1111,-9.111,0,-9.0162,-9.0302,-9.0429,-9.0549,-9.0632,-9.0793,-9.0797,-9.0882,-9.0857,-9.0874,-9.1063,-9.1119,-9.1239,-9.1292,-9.1268,-9.1517,-9.1475,-9.1402,-9.1273,-9.1513,-9.1609,-9.1648,-9.1129,-9.1125,-9.1122,-9.1119,0,0,-9.0541,-9.0649,-9.0696,-9.0748,-9.0839,-9.0945,-9.1101,-9.1221,-9.1294,-9.1377,-9.1506,-9.168,-9.1612,-9.1676,-9.1658,-9.1767,-9.2005,-9.1679,-9.168,-9.1737,-9.2281,-9.2336,-9.2382,-9.1968,-9.1975,-9.1981,-9.2274,0,-9.0832,-9.1108,-9.1097,-9.1353,-9.1481,-9.1412,-9.1547,-9.1616,-9.1635,-9.1743,-9.1762,-9.1886,-9.1787,-9.1826,-9.193,-9.1954,-9.2114,-9.1933,-9.2085,-9.2091,-9.2067,-9.2433,-9.2492,-9.2765,-9.2312,-9.2318,-9.2323,0,-9.1209,-9.1308,-9.1578,-9.1649,-9.1702,-9.1825,-9.1933,-9.2038,-9.2113,-9.2119,-9.2191,-9.2155,-9.2309,-9.2176,-9.2387,-9.2265,-9.2325,-9.2346,-9.2356,-9.237,-9.2221,-9.2456,-9.2852,-9.2894,-9.2382,-9.2377,-9.2373,0,-9.1457,-9.1657,-9.1845,-9.1892,-9.1979,-9.2067,-9.2107,-9.2174,-9.2247,-9.2339,-9.2386,-9.2495,-9.2554,-9.2638,-9.2631,-9.2535,-9.2845,-9.2711,-9.2851,-9.2852,-9.292,-9.2916,-9.3332,-9.296,-9.296,-9.2959,-9.2958,0,-9.1784,-9.1951,-9.1958,-9.2073,-9.2258,-9.2241,-9.2423,-9.2453,-9.2514,-9.2631,-9.2577,-9.2688,-9.2672,-9.2782,-9.2776,-9.2951,-9.2978,-9.2985,-9.2982,-9.299,-9.299,-9.303,-9.3011,-9.297,-9.2967,-9.2965,-9.2963,0,-9.2093,-9.2104,-9.2303,-9.237,-9.2391,-9.2524,-9.2579,-9.2687,-9.27,-9.2849,-9.2883,-9.2904,-9.303,-9.3032,-9.3176,-9.3172,-9.3385,-9.336,-9.3361,-9.3356,-9.3496,-9.3483,-9.3953,-9.4013,-9.3603,-9.3607,-9.361,0,-9.23,-9.2428,-9.2509,-9.2585,-9.2631,-9.2754,-9.2828,-9.2815,-9.2894,-9.2988,-9.3084,-9.3206,-9.3303,-9.3508,-9.3534,-9.3643,-9.362,-9.3777,-9.3636,-9.364,-9.3621,-9.3614,-9.3626,-9.3804,-9.3809,-9.3813,-9.3816,0,-9.2667,-9.2666,-9.2777,-9.2889,-9.2979,-9.3066,-9.3147,-9.3211,-9.3207,-9.3297,-9.3427,-9.3503,-9.3651,-9.3772,-9.3877,-9.3914,-9.3864,-9.386,-9.3898,-9.3908,-9.3903,-9.3907,-9.3436,-9.3849,-9.3846,-9.3843,-9.3842,-9.384,-9.2932,-9.3041,-9.3116,-9.324,-9.3299,-9.3375,-9.3479,-9.3507,-9.3616,-9.3737,-9.3722,-9.3866,-9.3935,-9.4072,-9.4118,-9.4229,-9.4174,-9.4229,-9.4243,-9.4257,-9.4272,-9.3886,-9.4248,-9.4247,-9.4246,-9.4245,-9.4244,0,-9.3295,-9.3339,-9.3454,-9.3569,-9.3666,-9.3613,-9.3698,-9.3782,-9.3911,-9.3981,-9.4078,-9.4226,-9.4343,-9.4378,-9.449,-9.4571,-9.4551,-9.4601,-9.4595,-9.4604,-9.4316,-9.4271,-9.4616,-9.4615,-9.4615,-9.4615,-9.4615,-9.4615,-9.3496,-9.3679,-9.3687,-9.3897,-9.3939,-9.4083,-9.4136,-9.4204,-9.426,-9.4429,-9.4527,-9.455,-9.4605,-9.472,-9.4824,-9.4831,-9.4874,-9.4934,-9.4931,-9.4661,-9.4624,-9.4589,-9.4547,-9.4943,-9.4944,-9.521,-9.5212,-9.5214]}]]